| time (UTC) | temp C | wind direction | speed KPH | gust KPH | rain 1hr cm | rain 24hr cm | rain mn cm | humidity % | barometer mb |
| 20260507051503 | 10 | 113 | 4.8 | 11.3 | 0.00 | 0.00 | 0.00 | 94 | 1009.5 |
| 20260507050003 | 10 | 119 | 4.8 | 11.3 | 0.00 | 0.00 | 0.00 | 94 | 1009.5 |
| 20260507044503 | 10 | 105 | 4.8 | 9.7 | 0.00 | 0.00 | 0.00 | 94 | 1009.5 |
| 20260507043003 | 10 | 123 | 3.2 | 9.7 | 0.00 | 0.00 | 0.00 | 94 | 1010.0 |
| 20260507041503 | 10 | 119 | 4.8 | 6.4 | 0.00 | 0.00 | 0.00 | 94 | 1010.1 |
| 20260507040003 | 10 | 122 | 4.8 | 11.3 | 0.00 | 0.00 | 0.00 | 93 | 1010.3 |
| 20260507034503 | 10 | 118 | 4.8 | 9.7 | 0.00 | 0.00 | 0.00 | 93 | 1010.6 |
| 20260507033003 | 10 | 108 | 4.8 | 9.7 | 0.00 | 0.00 | 0.00 | 93 | 1010.3 |
| 20260507031503 | 10 | 115 | 3.2 | 9.7 | 0.00 | 0.00 | 0.00 | 92 | 1010.5 |
| 20260507030003 | 10 | 122 | 4.8 | 9.7 | 0.00 | 0.00 | 0.00 | 92 | 1010.4 |
| 20260507024503 | 11 | 129 | 4.8 | 11.3 | 0.00 | 0.00 | 0.00 | 92 | 1010.3 |
| 20260507023003 | 11 | 125 | 4.8 | 11.3 | 0.00 | 0.00 | 0.00 | 91 | 1010.6 |
| 20260507021503 | 11 | 122 | 4.8 | 9.7 | 0.00 | 0.00 | 0.00 | 91 | 1010.6 |
| 20260507020003 | 11 | 112 | 4.8 | 9.7 | 0.00 | 0.00 | 0.00 | 91 | 1010.7 |
| 20260507014503 | 11 | 124 | 4.8 | 11.3 | 0.00 | 0.00 | 0.00 | 90 | 1010.6 |
| 20260507013003 | 11 | 128 | 4.8 | 11.3 | 0.00 | 0.00 | 0.00 | 90 | 1010.9 |
| 20260507011503 | 11 | 120 | 3.2 | 6.4 | 0.00 | 0.00 | 0.00 | 89 | 1010.9 |
| 20260507010003 | 11 | 122 | 3.2 | 9.7 | 0.00 | 0.00 | 0.00 | 89 | 1011.1 |
| 20260507004503 | 11 | 108 | 3.2 | 9.7 | 0.00 | 0.00 | 0.00 | 88 | 1011.2 |
| 20260507003003 | 11 | 129 | 4.8 | 11.3 | 0.00 | 0.00 | 0.00 | 87 | 1011.2 |
| 20260507001503 | 11 | 121 | 4.8 | 11.3 | 0.00 | 0.00 | 0.00 | 87 | 1011.3 |
| 20260507000003 | 11 | 119 | 4.8 | 9.7 | 0.00 | 0.00 | 0.00 | 87 | 1011.4 |
| 20260506234503 | 12 | 124 | 4.8 | 6.4 | 0.00 | 0.00 | 0.00 | 87 | 1011.4 |
| 20260506233003 | 12 | 125 | 4.8 | 9.7 | 0.00 | 0.00 | 0.00 | 86 | 1011.2 |
| 20260506231503 | 12 | 118 | 3.2 | 6.4 | 0.00 | 0.00 | 0.00 | 86 | 1011.6 |
| 20260506230004 | 12 | 133 | 4.8 | 9.7 | 0.00 | 0.00 | 0.00 | 86 | 1011.7 |
| 20260506224503 | 12 | 129 | 4.8 | 9.7 | 0.00 | 0.00 | 0.00 | 85 | 1011.6 |
| 20260506223003 | 12 | 122 | 3.2 | 9.7 | 0.00 | 0.00 | 0.00 | 85 | 1011.5 |
| 20260506221504 | 12 | 145 | 4.8 | 9.7 | 0.00 | 0.00 | 0.00 | 84 | 1011.5 |
| 20260506220003 | 12 | 120 | 4.8 | 14.5 | 0.00 | 0.00 | 0.00 | 83 | 1011.7 |
| 20260506214503 | 12 | 124 | 6.4 | 12.9 | 0.00 | 0.00 | 0.00 | 83 | 1011.7 |
| 20260506213003 | 12 | 128 | 6.4 | 12.9 | 0.00 | 0.00 | 0.00 | 83 | 1011.6 |
| 20260506211503 | 13 | 127 | 6.4 | 17.7 | 0.00 | 0.00 | 0.00 | 81 | 1011.5 |
| 20260506210003 | 13 | 133 | 6.4 | 17.7 | 0.00 | 0.00 | 0.00 | 79 | 1011.8 |
| 20260506204503 | 13 | 130 | 8.0 | 22.5 | 0.00 | 0.00 | 0.00 | 78 | 1011.6 |
| 20260506203003 | 13 | 128 | 8.0 | 20.9 | 0.00 | 0.00 | 0.00 | 77 | 1011.3 |
| 20260506201503 | 14 | 118 | 8.0 | 17.7 | 0.00 | 0.00 | 0.00 | 76 | 1011.4 |
| 20260506200003 | 14 | 138 | 9.7 | 20.9 | 0.00 | 0.00 | 0.00 | 74 | 1011.3 |
| 20260506194503 | 15 | 133 | 9.7 | 20.9 | 0.00 | 0.00 | 0.00 | 72 | 1011.3 |
| 20260506193003 | 15 | 136 | 6.4 | 17.7 | 0.00 | 0.00 | 0.00 | 71 | 1011.0 |
| 20260506191503 | 15 | 151 | 8.0 | 17.7 | 0.00 | 0.00 | 0.00 | 68 | 1011.1 |
| 20260506190003 | 16 | 143 | 8.0 | 24.1 | 0.00 | 0.00 | 0.00 | 67 | 1010.9 |
| 20260506184503 | 16 | 146 | 9.7 | 17.7 | 0.00 | 0.00 | 0.00 | 64 | 1010.7 |
| 20260506183003 | 17 | 116 | 8.0 | 20.9 | 0.00 | 0.00 | 0.00 | 63 | 1010.9 |
| 20260506181503 | 17 | 123 | 9.7 | 24.1 | 0.00 | 0.00 | 0.00 | 60 | 1010.9 |
| 20260506180004 | 18 | 145 | 9.7 | 22.5 | 0.00 | 0.00 | 0.00 | 58 | 1011.0 |
| 20260506174503 | 18 | 119 | 9.7 | 24.1 | 0.00 | 0.00 | 0.00 | 57 | 1010.9 |
| 20260506173003 | 18 | 132 | 9.7 | 20.9 | 0.00 | 0.00 | 0.00 | 56 | 1010.9 |
| 20260506171503 | 18 | 125 | 9.7 | 27.4 | 0.00 | 0.00 | 0.00 | 56 | 1011.0 |
| 20260506170003 | 19 | 145 | 9.7 | 22.5 | 0.00 | 0.00 | 0.00 | 56 | 1011.1 |
| 20260506164503 | 19 | 136 | 11.3 | 24.1 | 0.00 | 0.00 | 0.00 | 58 | 1011.1 |
| 20260506163003 | 20 | 145 | 9.7 | 22.5 | 0.00 | 0.00 | 0.00 | 56 | 1010.9 |
| 20260506161503 | 20 | 144 | 9.7 | 20.9 | 0.00 | 0.00 | 0.00 | 56 | 1010.7 |
| 20260506160003 | 20 | 138 | 9.7 | 22.5 | 0.00 | 0.00 | 0.00 | 58 | 1011.2 |
| 20260506154503 | 20 | 140 | 9.7 | 22.5 | 0.00 | 0.00 | 0.00 | 58 | 1011.0 |
| 20260506153003 | 20 | 123 | 8.0 | 17.7 | 0.00 | 0.00 | 0.00 | 56 | 1011.3 |
| 20260506151503 | 19 | 156 | 9.7 | 22.5 | 0.00 | 0.00 | 0.00 | 61 | 1011.5 |
| 20260506150003 | 21 | 136 | 9.7 | 24.1 | 0.00 | 0.00 | 0.00 | 56 | 1011.6 |
| 20260506144503 | 19 | 116 | 8.0 | 20.9 | 0.00 | 0.00 | 0.00 | 60 | 1011.8 |
| 20260506143003 | 20 | 128 | 8.0 | 20.9 | 0.00 | 0.00 | 0.00 | 56 | 1012.0 |
| 20260506141503 | 21 | 125 | 8.0 | 17.7 | 0.00 | 0.00 | 0.00 | 56 | 1012.1 |
| 20260506140003 | 21 | 128 | 8.0 | 24.1 | 0.00 | 0.00 | 0.00 | 56 | 1012.4 |
| 20260506134503 | 19 | 122 | 6.4 | 17.7 | 0.00 | 0.00 | 0.00 | 59 | 1012.6 |
| 20260506133003 | 20 | 125 | 8.0 | 17.7 | 0.00 | 0.00 | 0.00 | 59 | 1012.6 |
| 20260506131503 | 21 | 121 | 8.0 | 17.7 | 0.00 | 0.00 | 0.00 | 58 | 1012.6 |
| 20260506130004 | 21 | 127 | 6.4 | 22.5 | 0.00 | 0.00 | 0.00 | 60 | 1012.6 |
| 20260506124503 | 19 | 113 | 8.0 | 17.7 | 0.00 | 0.00 | 0.00 | 62 | 1012.8 |
| 20260506123003 | 19 | 124 | 4.8 | 17.7 | 0.00 | 0.00 | 0.00 | 61 | 1013.0 |
| 20260506121503 | 18 | 124 | 6.4 | 12.9 | 0.00 | 0.00 | 0.00 | 61 | 1013.2 |
| 20260506120003 | 19 | 149 | 6.4 | 17.7 | 0.00 | 0.00 | 0.00 | 59 | 1013.5 |
| 20260506114503 | 19 | 147 | 6.4 | 17.7 | 0.00 | 0.00 | 0.00 | 57 | 1013.5 |
| 20260506113003 | 18 | 156 | 6.4 | 17.7 | 0.00 | 0.00 | 0.00 | 61 | 1013.5 |
| 20260506111503 | 20 | 104 | 4.8 | 14.5 | 0.00 | 0.00 | 0.00 | 52 | 1013.7 |
| 20260506110004 | 20 | 138 | 6.4 | 17.7 | 0.00 | 0.00 | 0.00 | 55 | 1013.9 |
| 20260506104503 | 20 | 192 | 4.8 | 12.9 | 0.00 | 0.00 | 0.00 | 53 | 1014.0 |
| 20260506103003 | 18 | 151 | 4.8 | 11.3 | 0.00 | 0.00 | 0.00 | 61 | 1014.0 |
| 20260506101503 | 19 | 134 | 4.8 | 12.9 | 0.00 | 0.00 | 0.00 | 59 | 1013.9 |
| 20260506100003 | 17 | 140 | 4.8 | 11.3 | 0.00 | 0.00 | 0.00 | 63 | 1014.1 |
| 20260506094503 | 18 | 138 | 3.2 | 9.7 | 0.00 | 0.00 | 0.00 | 62 | 1014.1 |
| 20260506093003 | 18 | 156 | 4.8 | 14.5 | 0.00 | 0.00 | 0.00 | 65 | 1014.2 |
| 20260506091503 | 18 | 172 | 4.8 | 12.9 | 0.00 | 0.00 | 0.00 | 69 | 1014.2 |
| 20260506090003 | 17 | 137 | 4.8 | 12.9 | 0.00 | 0.00 | 0.00 | 72 | 1014.3 |
| 20260506084503 | 16 | 113 | 4.8 | 12.9 | 0.00 | 0.00 | 0.00 | 74 | 1014.1 |
| 20260506083003 | 15 | 133 | 4.8 | 11.3 | 0.00 | 0.00 | 0.00 | 76 | 1014.4 |
| 20260506081503 | 15 | 175 | 4.8 | 9.7 | 0.00 | 0.00 | 0.00 | 77 | 1014.4 |
| 20260506073003 | 13 | 134 | 3.2 | 6.4 | 0.00 | 0.00 | 0.00 | 85 | 1014.7 |
| 20260506071503 | 13 | 130 | 3.2 | 6.4 | 0.00 | 0.00 | 0.00 | 89 | 1014.6 |
| 20260506061503 | 10 | 113 | 1.6 | 6.4 | 0.00 | 0.00 | 0.00 | 97 | 1014.2 |